User: anonymous   Login
Location: Unspecified
(0.0000°N, 0.0000°E)
Time: 23:29:15
(UTC+02:00)
Language:

Cosmos 1943 Rocket - Orbit

View from above orbital plane
View from above orbital plane
View from above satellite
View from above satellite

Ground track
Ground track

The orbit data is extracted from the following two-line orbital elements,

1 19120U 88039B   16177.50681964 -.00000146  00000-0 -46713-4 0  9990
2 19120  71.0148 358.5560 0021468   9.3846 350.7676 14.19150723455785
Epoch (UTC): 25 June 2016 12:09:49
Eccentricity: 0.0021468
inclination: 71.0148°
perigee height: 813 km
apogee height: 844 km
right ascension of ascending node: 358.5560°
argument of perigee: 9.3846°
revolutions per day: 14.19150723
mean anomaly at epoch: 350.7676°
orbit number at epoch: 45578

The dashed part of the orbit path shows where the satellite is in the earth's shadow,  

DLR